Wetterdaten: Woche 20.01.14 - 26.01.14 (KW4)
Datum Zeit Temperatur Luftfeuchte Luftdruck Niederschlag Windrichtung Sonnenschein Solar Wind
20.01.2014 00:00 0,9 C 99 % 998,7 hPa 0,0 l/m N-NO 0,00 h 0 W/m 2,4 km/h (1 Bft)
20.01.2014 01:00 0,9 C 100 % 998,4 hPa 0,0 l/m N-NO 0,00 h 0 W/m 1,6 km/h (1 Bft)
20.01.2014 02:00 0,9 C 100 % 998,2 hPa 0,0 l/m N 0,00 h 0 W/m 0,9 km/h (0 Bft)
20.01.2014 03:00 0,9 C 99 % 998,6 hPa 0,0 l/m NO 0,00 h 0 W/m 6,8 km/h (2 Bft)
20.01.2014 04:00 0,6 C 99 % 998,8 hPa 0,0 l/m NW 0,00 h 0 W/m 7,0 km/h (2 Bft)
20.01.2014 05:00 0,6 C 99 % 998,9 hPa 0,0 l/m NW 0,00 h 0 W/m 4,0 km/h (1 Bft)
20.01.2014 06:00 0,6 C 99 % 999,4 hPa 0,0 l/m W-NW 0,00 h 0 W/m 5,3 km/h (1 Bft)
20.01.2014 07:00 0,8 C 100 % 1000,0 hPa 0,0 l/m W 0,00 h 0 W/m 6,3 km/h (2 Bft)
20.01.2014 08:00 0,9 C 100 % 1000,5 hPa 0,0 l/m W 0,00 h 8 W/m 6,8 km/h (2 Bft)
20.01.2014 09:00 1,1 C 100 % 1001,2 hPa 0,0 l/m W-SW 0,00 h 24 W/m 7,5 km/h (2 Bft)
20.01.2014 10:00 1,3 C 100 % 1001,9 hPa 0,0 l/m W-SW 0,00 h 29 W/m 6,8 km/h (2 Bft)
20.01.2014 11:00 1,3 C 100 % 1002,5 hPa 0,0 l/m W-SW 0,00 h 31 W/m 11,0 km/h (2 Bft)
20.01.2014 12:00 1,7 C 100 % 1002,5 hPa 0,0 l/m W-SW 0,00 h 43 W/m 11,3 km/h (2 Bft)
20.01.2014 13:00 2,0 C 100 % 1002,7 hPa 0,0 l/m W-NW 0,00 h 30 W/m 7,0 km/h (2 Bft)
20.01.2014 14:00 2,2 C 100 % 1002,8 hPa 0,0 l/m W-NW 0,00 h 39 W/m 7,2 km/h (2 Bft)
20.01.2014 15:00 2,5 C 99 % 1003,2 hPa 0,0 l/m W 0,00 h 50 W/m 7,4 km/h (2 Bft)
20.01.2014 16:00 2,9 C 99 % 1003,7 hPa 0,0 l/m N 0,00 h 15 W/m 1,9 km/h (1 Bft)
20.01.2014 17:00 3,1 C 98 % 1004,2 hPa 0,0 l/m W 0,00 h 0 W/m 4,9 km/h (1 Bft)
20.01.2014 18:00 3,1 C 98 % 1004,6 hPa 0,0 l/m W 0,00 h 0 W/m 4,1 km/h (1 Bft)
20.01.2014 19:00 3,2 C 98 % 1005,1 hPa 0,0 l/m W 0,00 h 0 W/m 6,8 km/h (2 Bft)
20.01.2014 20:00 3,2 C 98 % 1005,6 hPa 0,0 l/m W 0,00 h 0 W/m 7,0 km/h (2 Bft)
20.01.2014 21:00 3,2 C 98 % 1006,0 hPa 0,2 l/m W 0,00 h 0 W/m 6,8 km/h (2 Bft)
20.01.2014 22:00 2,9 C 98 % 1006,6 hPa 0,0 l/m W 0,00 h 0 W/m 3,3 km/h (1 Bft)
20.01.2014 23:00 2,7 C 98 % 1006,8 hPa 0,2 l/m N 0,00 h 0 W/m 0,7 km/h (0 Bft)
21.01.2014 00:00 2,8 C 98 % 1007,0 hPa 0,4 l/m W 0,00 h 0 W/m 5,2 km/h (1 Bft)
21.01.2014 01:00 2,8 C 98 % 1007,2 hPa 0,4 l/m W 0,00 h 0 W/m 7,0 km/h (2 Bft)
21.01.2014 02:00 2,9 C 98 % 1007,5 hPa 0,4 l/m W-SW 0,00 h 0 W/m 8,8 km/h (2 Bft)
21.01.2014 03:00 3,0 C 98 % 1007,7 hPa 0,2 l/m W-SW 0,00 h 0 W/m 6,4 km/h (2 Bft)
21.01.2014 04:00 3,1 C 98 % 1007,9 hPa 0,8 l/m W-SW 0,00 h 0 W/m 7,5 km/h (2 Bft)
21.01.2014 05:00 3,0 C 99 % 1008,2 hPa 0,2 l/m W-SW 0,00 h 0 W/m 8,7 km/h (2 Bft)
21.01.2014 06:00 2,8 C 98 % 1008,6 hPa 0,0 l/m W-SW 0,00 h 0 W/m 9,3 km/h (2 Bft)
21.01.2014 07:00 2,8 C 98 % 1009,1 hPa 0,2 l/m W-SW 0,00 h 0 W/m 7,9 km/h (2 Bft)
21.01.2014 08:00 2,8 C 98 % 1009,5 hPa 0,0 l/m W-SW 0,00 h 7 W/m 8,0 km/h (2 Bft)
21.01.2014 09:00 2,8 C 98 % 1010,2 hPa 0,2 l/m W-SW 0,00 h 22 W/m 9,4 km/h (2 Bft)
21.01.2014 10:00 2,9 C 98 % 1010,6 hPa 0,0 l/m W-SW 0,00 h 24 W/m 9,1 km/h (2 Bft)
21.01.2014 11:00 2,8 C 98 % 1010,9 hPa 0,0 l/m W-SW 0,00 h 23 W/m 9,4 km/h (2 Bft)
21.01.2014 12:00 2,9 C 98 % 1010,8 hPa 0,2 l/m W-SW 0,00 h 33 W/m 7,5 km/h (2 Bft)
21.01.2014 13:00 3,0 C 98 % 1010,6 hPa 0,2 l/m W-SW 0,00 h 49 W/m 9,1 km/h (2 Bft)
21.01.2014 14:00 3,2 C 97 % 1010,6 hPa 0,0 l/m W-SW 0,00 h 22 W/m 8,9 km/h (2 Bft)
21.01.2014 15:00 3,1 C 97 % 1011,1 hPa 0,0 l/m W-SW 0,00 h 12 W/m 9,1 km/h (2 Bft)
21.01.2014 16:00 3,1 C 96 % 1011,7 hPa 0,0 l/m W-SW 0,00 h 6 W/m 8,8 km/h (2 Bft)
21.01.2014 17:00 3,0 C 96 % 1012,1 hPa 0,0 l/m W-SW 0,00 h 0 W/m 7,1 km/h (2 Bft)
21.01.2014 18:00 2,9 C 96 % 1012,2 hPa 0,0 l/m W-SW 0,00 h 0 W/m 5,7 km/h (1 Bft)
21.01.2014 19:00 2,8 C 96 % 1012,2 hPa 0,0 l/m W-SW 0,00 h 0 W/m 5,2 km/h (1 Bft)
21.01.2014 20:00 2,7 C 96 % 1012,3 hPa 0,0 l/m W-SW 0,00 h 0 W/m 6,1 km/h (2 Bft)
21.01.2014 21:00 2,5 C 96 % 1012,4 hPa 0,0 l/m W 0,00 h 0 W/m 7,8 km/h (2 Bft)
21.01.2014 22:00 2,4 C 96 % 1012,1 hPa 0,0 l/m W 0,00 h 0 W/m 5,2 km/h (1 Bft)
21.01.2014 23:00 2,3 C 96 % 1011,9 hPa 0,0 l/m W 0,00 h 0 W/m 2,7 km/h (1 Bft)
22.01.2014 00:00 1,7 C 96 % 1011,7 hPa 0,0 l/m N 0,00 h 0 W/m 0,3 km/h (0 Bft)
22.01.2014 01:00 1,2 C 96 % 1011,6 hPa 0,0 l/m N 0,00 h 0 W/m 0,0 km/h (0 Bft)
22.01.2014 02:00 0,9 C 97 % 1011,3 hPa 0,0 l/m N 0,00 h 0 W/m 0,0 km/h (0 Bft)
22.01.2014 03:00 0,8 C 97 % 1011,1 hPa 0,0 l/m N 0,00 h 0 W/m 0,0 km/h (0 Bft)
22.01.2014 04:00 0,8 C 97 % 1011,3 hPa 0,0 l/m N 0,00 h 0 W/m 0,0 km/h (0 Bft)
22.01.2014 05:00 0,8 C 98 % 1011,3 hPa 0,0 l/m N 0,00 h 0 W/m 0,0 km/h (0 Bft)
22.01.2014 06:00 0,9 C 98 % 1011,3 hPa 0,0 l/m N 0,00 h 0 W/m 0,0 km/h (0 Bft)
22.01.2014 07:00 0,9 C 98 % 1011,4 hPa 0,0 l/m N 0,00 h 0 W/m 0,0 km/h (0 Bft)
22.01.2014 08:00 1,0 C 98 % 1011,7 hPa 0,0 l/m N 0,00 h 7 W/m 0,0 km/h (0 Bft)
22.01.2014 09:00 1,3 C 99 % 1012,0 hPa 0,0 l/m N 0,00 h 20 W/m 0,0 km/h (0 Bft)
22.01.2014 10:00 1,7 C 99 % 1012,0 hPa 0,0 l/m N 0,00 h 37 W/m 0,3 km/h (0 Bft)
22.01.2014 11:00 2,2 C 99 % 1012,0 hPa 0,0 l/m N 0,00 h 53 W/m 0,8 km/h (0 Bft)
22.01.2014 12:00 2,7 C 99 % 1011,5 hPa 0,0 l/m W 0,00 h 65 W/m 1,1 km/h (0 Bft)
22.01.2014 13:00 3,1 C 98 % 1011,3 hPa 0,0 l/m W 0,00 h 55 W/m 3,7 km/h (1 Bft)
22.01.2014 14:00 3,2 C 93 % 1011,0 hPa 0,0 l/m W 0,00 h 36 W/m 5,7 km/h (1 Bft)
22.01.2014 15:00 3,2 C 86 % 1011,1 hPa 0,0 l/m SO 0,00 h 29 W/m 4,4 km/h (1 Bft)
22.01.2014 16:00 3,2 C 86 % 1011,4 hPa 0,0 l/m SO 0,00 h 10 W/m 4,4 km/h (1 Bft)
22.01.2014 17:00 3,0 C 87 % 1011,6 hPa 0,0 l/m O-SO 0,00 h 0 W/m 3,7 km/h (1 Bft)
22.01.2014 18:00 2,8 C 88 % 1012,1 hPa 0,0 l/m N 0,00 h 0 W/m 0,9 km/h (0 Bft)
22.01.2014 19:00 2,4 C 90 % 1012,3 hPa 0,0 l/m N 0,00 h 0 W/m 0,0 km/h (0 Bft)
22.01.2014 20:00 2,2 C 91 % 1012,6 hPa 0,0 l/m N 0,00 h 0 W/m 0,0 km/h (0 Bft)
22.01.2014 21:00 1,9 C 93 % 1012,9 hPa 0,0 l/m N 0,00 h 0 W/m 0,0 km/h (0 Bft)
22.01.2014 22:00 1,8 C 93 % 1013,2 hPa 0,0 l/m N 0,00 h 0 W/m 0,0 km/h (0 Bft)
22.01.2014 23:00 1,7 C 94 % 1013,3 hPa 0,0 l/m N 0,00 h 0 W/m 0,0 km/h (0 Bft)
23.01.2014 00:00 1,4 C 95 % 1013,6 hPa 0,0 l/m N 0,00 h 0 W/m 0,0 km/h (0 Bft)
23.01.2014 01:00 0,8 C 95 % 1013,6 hPa 0,0 l/m N 0,00 h 0 W/m 0,0 km/h (0 Bft)
23.01.2014 02:00 0,4 C 95 % 1013,9 hPa 0,0 l/m N 0,00 h 0 W/m 0,0 km/h (0 Bft)
23.01.2014 03:00 0,3 C 96 % 1014,1 hPa 0,0 l/m N 0,00 h 0 W/m 0,3 km/h (0 Bft)
23.01.2014 04:00 0,1 C 96 % 1014,3 hPa 0,0 l/m N 0,00 h 0 W/m 0,3 km/h (0 Bft)
23.01.2014 05:00 -0,3 C 96 % 1014,8 hPa 0,0 l/m N 0,00 h 0 W/m 0,0 km/h (0 Bft)
23.01.2014 06:00 -0,3 C 97 % 1015,0 hPa 0,0 l/m O-SO 0,00 h 0 W/m 1,7 km/h (1 Bft)
23.01.2014 07:00 -0,1 C 98 % 1015,0 hPa 0,0 l/m O-SO 0,00 h 7 W/m 3,6 km/h (1 Bft)
23.01.2014 08:00 0,3 C 98 % 1015,4 hPa 0,0 l/m SO 0,17 h 23 W/m 5,6 km/h (1 Bft)
23.01.2014 09:00 0,6 C 98 % 1015,8 hPa 0,0 l/m SO 0,00 h 42 W/m 3,9 km/h (1 Bft)
23.01.2014 10:00 1,3 C 98 % 1016,3 hPa 0,0 l/m S-SW 0,00 h 93 W/m 7,7 km/h (2 Bft)
23.01.2014 11:00 2,2 C 97 % 1016,3 hPa 0,0 l/m S-SW 0,00 h 101 W/m 11,4 km/h (2 Bft)
23.01.2014 12:00 2,9 C 95 % 1015,8 hPa 0,0 l/m SW 0,00 h 120 W/m 14,1 km/h (3 Bft)
23.01.2014 13:00 3,3 C 93 % 1015,2 hPa 0,0 l/m W-SW 0,00 h 73 W/m 19,4 km/h (3 Bft)
23.01.2014 14:00 3,4 C 90 % 1014,7 hPa 0,0 l/m W-SW 0,00 h 58 W/m 21,7 km/h (4 Bft)
23.01.2014 15:00 3,2 C 90 % 1014,8 hPa 0,0 l/m W-SW 0,00 h 24 W/m 21,0 km/h (4 Bft)
23.01.2014 16:00 3,0 C 91 % 1015,0 hPa 0,0 l/m W-SW 0,00 h 13 W/m 21,6 km/h (4 Bft)
23.01.2014 17:00 3,0 C 91 % 1014,9 hPa 0,0 l/m W-SW 0,00 h 5 W/m 22,1 km/h (4 Bft)
23.01.2014 18:00 3,0 C 92 % 1014,8 hPa 0,0 l/m W-SW 0,00 h 0 W/m 21,3 km/h (4 Bft)
23.01.2014 19:00 3,3 C 92 % 1014,6 hPa 0,0 l/m W-SW 0,00 h 0 W/m 20,2 km/h (4 Bft)
23.01.2014 20:00 3,4 C 92 % 1014,1 hPa 0,0 l/m SW 0,00 h 0 W/m 10,7 km/h (2 Bft)
23.01.2014 21:00 3,2 C 93 % 1013,5 hPa 0,0 l/m SW 0,00 h 0 W/m 7,4 km/h (2 Bft)
23.01.2014 22:00 2,8 C 93 % 1012,9 hPa 0,0 l/m SW 0,00 h 0 W/m 6,3 km/h (2 Bft)
23.01.2014 23:00 3,1 C 93 % 1012,3 hPa 0,0 l/m SW 0,00 h 0 W/m 16,4 km/h (3 Bft)
24.01.2014 00:00 3,1 C 91 % 1011,9 hPa 0,0 l/m SW 0,00 h 0 W/m 17,4 km/h (3 Bft)
24.01.2014 01:00 2,5 C 93 % 1011,0 hPa 0,2 l/m SW 0,00 h 0 W/m 12,6 km/h (3 Bft)
24.01.2014 02:00 2,0 C 95 % 1010,7 hPa 0,4 l/m SW 0,00 h 0 W/m 13,3 km/h (3 Bft)
24.01.2014 03:00 1,8 C 96 % 1010,4 hPa 0,4 l/m W-SW 0,00 h 0 W/m 18,0 km/h (3 Bft)
24.01.2014 04:00 1,4 C 96 % 1010,8 hPa 0,6 l/m W-SW 0,00 h 0 W/m 11,4 km/h (2 Bft)
24.01.2014 05:00 1,3 C 96 % 1011,5 hPa 0,0 l/m W 0,00 h 0 W/m 14,4 km/h (3 Bft)
24.01.2014 06:00 1,1 C 95 % 1012,2 hPa 0,0 l/m W 0,00 h 0 W/m 13,0 km/h (3 Bft)
24.01.2014 07:00 0,6 C 94 % 1012,8 hPa 0,0 l/m W-SW 0,00 h 0 W/m 13,0 km/h (3 Bft)
24.01.2014 08:00 0,2 C 94 % 1013,8 hPa 0,0 l/m SW 0,00 h 9 W/m 7,4 km/h (2 Bft)
24.01.2014 09:00 -0,0 C 96 % 1014,4 hPa 0,0 l/m SW 0,00 h 27 W/m 13,4 km/h (3 Bft)
24.01.2014 10:00 0,5 C 95 % 1014,8 hPa 0,0 l/m SW 0,00 h 84 W/m 14,4 km/h (3 Bft)
24.01.2014 11:00 1,4 C 92 % 1014,7 hPa 0,0 l/m W-SW 0,00 h 110 W/m 14,2 km/h (3 Bft)
24.01.2014 12:00 2,3 C 86 % 1014,3 hPa 0,0 l/m W-NW 0,17 h 165 W/m 10,2 km/h (2 Bft)
24.01.2014 13:00 2,4 C 83 % 1014,0 hPa 0,0 l/m W-NW 0,00 h 90 W/m 10,6 km/h (2 Bft)
24.01.2014 14:00 2,2 C 81 % 1014,1 hPa 0,0 l/m W-NW 0,00 h 36 W/m 8,3 km/h (2 Bft)
24.01.2014 15:00 2,2 C 83 % 1014,4 hPa 0,0 l/m W-NW 0,00 h 39 W/m 5,4 km/h (1 Bft)
24.01.2014 16:00 1,8 C 85 % 1014,9 hPa 0,0 l/m N 0,00 h 11 W/m 1,5 km/h (1 Bft)
24.01.2014 17:00 1,5 C 87 % 1015,4 hPa 0,0 l/m NW 0,00 h 0 W/m 3,3 km/h (1 Bft)
24.01.2014 18:00 1,3 C 88 % 1015,9 hPa 0,0 l/m NW 0,00 h 0 W/m 1,9 km/h (1 Bft)
24.01.2014 19:00 1,0 C 89 % 1016,3 hPa 0,0 l/m N 0,00 h 0 W/m 3,2 km/h (1 Bft)
24.01.2014 20:00 0,8 C 90 % 1016,2 hPa 0,0 l/m N 0,00 h 0 W/m 0,4 km/h (0 Bft)
24.01.2014 21:00 0,7 C 91 % 1016,4 hPa 0,0 l/m N 0,00 h 0 W/m 0,5 km/h (0 Bft)
24.01.2014 22:00 0,5 C 92 % 1016,5 hPa 0,0 l/m N 0,00 h 0 W/m 0,0 km/h (0 Bft)
24.01.2014 23:00 0,4 C 92 % 1016,5 hPa 0,0 l/m N 0,00 h 0 W/m 0,1 km/h (0 Bft)
25.01.2014 00:00 0,4 C 92 % 1016,5 hPa 0,0 l/m N 0,00 h 0 W/m 0,5 km/h (0 Bft)
25.01.2014 01:00 0,3 C 94 % 1016,5 hPa 0,0 l/m N 0,00 h 0 W/m 0,1 km/h (0 Bft)
25.01.2014 02:00 0,3 C 93 % 1016,8 hPa 0,0 l/m N 0,00 h 0 W/m 0,0 km/h (0 Bft)
25.01.2014 03:00 0,3 C 93 % 1017,3 hPa 0,0 l/m N 0,00 h 0 W/m 0,1 km/h (0 Bft)
25.01.2014 04:00 0,3 C 93 % 1017,7 hPa 0,0 l/m N 0,00 h 0 W/m 2,5 km/h (1 Bft)
25.01.2014 05:00 0,3 C 93 % 1017,9 hPa 0,0 l/m N 0,00 h 0 W/m 1,1 km/h (0 Bft)
25.01.2014 06:00 0,3 C 93 % 1018,1 hPa 0,0 l/m N 0,00 h 0 W/m 2,0 km/h (1 Bft)
25.01.2014 07:00 0,2 C 94 % 1018,3 hPa 0,0 l/m N 0,00 h 0 W/m 0,3 km/h (0 Bft)
25.01.2014 08:00 0,2 C 95 % 1018,5 hPa 0,0 l/m NW 0,00 h 8 W/m 1,1 km/h (0 Bft)
25.01.2014 09:00 0,3 C 96 % 1018,5 hPa 0,0 l/m N 0,00 h 21 W/m 2,0 km/h (1 Bft)
25.01.2014 10:00 0,5 C 96 % 1018,3 hPa 0,0 l/m W-NW 0,00 h 51 W/m 3,2 km/h (1 Bft)
25.01.2014 11:00 1,0 C 95 % 1017,8 hPa 0,0 l/m W 0,00 h 72 W/m 4,8 km/h (1 Bft)
25.01.2014 12:00 1,4 C 92 % 1017,2 hPa 0,0 l/m W 0,00 h 90 W/m 2,7 km/h (1 Bft)
25.01.2014 13:00 2,0 C 88 % 1016,5 hPa 0,0 l/m W 0,00 h 94 W/m 2,9 km/h (1 Bft)
25.01.2014 14:00 2,5 C 84 % 1016,2 hPa 0,0 l/m W 0,00 h 107 W/m 5,5 km/h (1 Bft)
25.01.2014 15:00 2,7 C 76 % 1016,3 hPa 0,0 l/m W 0,00 h 36 W/m 5,1 km/h (1 Bft)
25.01.2014 16:00 2,4 C 73 % 1016,9 hPa 0,0 l/m W 0,00 h 9 W/m 4,8 km/h (1 Bft)
25.01.2014 17:00 2,2 C 75 % 1016,9 hPa 0,0 l/m W 0,00 h 0 W/m 2,5 km/h (1 Bft)
25.01.2014 18:00 1,8 C 79 % 1017,0 hPa 0,0 l/m W 0,00 h 0 W/m 6,8 km/h (2 Bft)
25.01.2014 19:00 1,4 C 85 % 1016,5 hPa 0,0 l/m W-SW 0,00 h 0 W/m 9,4 km/h (2 Bft)
25.01.2014 20:00 1,0 C 88 % 1015,8 hPa 0,0 l/m W-SW 0,00 h 0 W/m 10,8 km/h (2 Bft)
25.01.2014 21:00 0,4 C 88 % 1015,0 hPa 0,0 l/m W-SW 0,00 h 0 W/m 11,5 km/h (2 Bft)
25.01.2014 22:00 0,0 C 88 % 1013,4 hPa 0,0 l/m SW 0,00 h 0 W/m 14,2 km/h (3 Bft)
25.01.2014 23:00 -0,1 C 90 % 1011,5 hPa 0,0 l/m SW 0,00 h 0 W/m 21,9 km/h (4 Bft)
26.01.2014 00:00 0,1 C 89 % 1009,6 hPa 0,2 l/m W-SW 0,00 h 0 W/m 25,7 km/h (4 Bft)
26.01.2014 01:00 0,5 C 87 % 1009,1 hPa 0,0 l/m W 0,00 h 0 W/m 23,1 km/h (4 Bft)
26.01.2014 02:00 0,5 C 93 % 1009,3 hPa 0,2 l/m W-SW 0,00 h 0 W/m 24,9 km/h (4 Bft)
26.01.2014 03:00 0,9 C 94 % 1010,3 hPa 0,0 l/m W-NW 0,00 h 0 W/m 21,1 km/h (4 Bft)
26.01.2014 04:00 1,3 C 92 % 1011,5 hPa 0,0 l/m W 0,00 h 0 W/m 23,6 km/h (4 Bft)
26.01.2014 05:00 1,3 C 92 % 1012,4 hPa 0,0 l/m W 0,00 h 0 W/m 19,8 km/h (4 Bft)
26.01.2014 06:00 1,3 C 90 % 1012,8 hPa 0,0 l/m W 0,00 h 0 W/m 18,1 km/h (3 Bft)
26.01.2014 07:00 1,3 C 89 % 1013,3 hPa 0,0 l/m W 0,00 h 0 W/m 18,1 km/h (3 Bft)
26.01.2014 08:00 1,3 C 86 % 1013,4 hPa 0,0 l/m W-NW 0,00 h 19 W/m 23,5 km/h (4 Bft)
26.01.2014 09:00 1,7 C 83 % 1013,7 hPa 0,0 l/m W-NW 0,08 h 77 W/m 25,9 km/h (4 Bft)
26.01.2014 10:00 2,1 C 81 % 1013,8 hPa 0,0 l/m W 0,00 h 67 W/m 22,1 km/h (4 Bft)
26.01.2014 11:00 2,3 C 77 % 1014,0 hPa 0,0 l/m W 0,00 h 60 W/m 19,6 km/h (3 Bft)
26.01.2014 12:00 2,5 C 77 % 1013,5 hPa 0,0 l/m W-SW 0,00 h 76 W/m 14,4 km/h (3 Bft)
26.01.2014 13:00 3,5 C 75 % 1012,7 hPa 0,0 l/m W-SW 0,17 h 208 W/m 19,3 km/h (3 Bft)
26.01.2014 14:00 4,0 C 72 % 1011,7 hPa 0,0 l/m W-SW 0,67 h 281 W/m 26,4 km/h (4 Bft)
26.01.2014 15:00 3,8 C 69 % 1011,1 hPa 0,0 l/m W-SW 0,67 h 152 W/m 25,7 km/h (4 Bft)
26.01.2014 16:00 3,3 C 72 % 1009,9 hPa 0,0 l/m W-SW 0,08 h 35 W/m 21,0 km/h (4 Bft)
26.01.2014 17:00 2,3 C 78 % 1008,3 hPa 0,0 l/m SW 0,08 h 7 W/m 9,8 km/h (2 Bft)
26.01.2014 18:00 1,7 C 81 % 1006,6 hPa 0,0 l/m SW 0,00 h 0 W/m 9,9 km/h (2 Bft)
26.01.2014 19:00 1,8 C 79 % 1005,6 hPa 0,0 l/m SW 0,00 h 0 W/m 13,6 km/h (3 Bft)
26.01.2014 20:00 1,7 C 76 % 1003,8 hPa 0,0 l/m S-SW 0,00 h 0 W/m 10,5 km/h (2 Bft)
26.01.2014 21:00 1,6 C 75 % 1001,9 hPa 0,0 l/m SW 0,00 h 0 W/m 17,8 km/h (3 Bft)
26.01.2014 22:00 2,0 C 76 % 1000,6 hPa 0,0 l/m SW 0,00 h 0 W/m 15,8 km/h (3 Bft)
26.01.2014 23:00 1,5 C 86 % 999,3 hPa 0,2 l/m SW 0,00 h 0 W/m 17,6 km/h (3 Bft)
Min-Datum _ 23.01.14 26.01.14 20.01.14 - - - - 20.01.14
_ Min-Zeit 05:30 15:10 02:15 - - - - 00:00
Minimum _ -0,4 C 68 % 998,0 hPa - - - - 0,0 km/h (0 Bft)
Max-Datum _ 26.01.14 20.01.14 25.01.14 21.01.14 - 23.01.14 26.01.14 26.01.14
_ Max-Zeit 13:40 00:00 08:05 04:05 - 08:15 13:30 02:10
Maximum _ 4,5 C 100 % 1018,5 hPa 0,8 l/m - 0,08 h 517 W/m 38,6 km/h
W (5 Bft)
Durchschnitt _ 1,8 C 92 % 1011,3 hPa #5,8 l/m W-SW #2:05 h 51 W/m 8,1 km/h (2 Bft)